Monroe, Wisconsin, United States (53566)
Lat: 42.60N, Lon: 89.64W
Wx Zone: WIZ068
Local Info
Past Weather Observations for Today

NOTE: This archive is for the closest National Weather Service station to Monroe. Information may differ from the station used for current weather conditions.

Click here for Long-term Archive

Time Weather Temperature Dewpoint Humidity Pressure Winds Precip Visibility
15:55
Overcast
Rain
46°F / 8°C 46°F / 8°C 100% 29.42 in
(996 mb)
SE 12.7 mph
(SE 20 kph)
0.01 in
(0.25 mm)
1 3/4SM
15:35
Overcast
Drizzle
46°F / 8°C 46°F / 8°C 100% 29.42 in
(996 mb)
SE 13.8 mph
(SE 22 kph)
- 2SM
15:15
Overcast
Fog And Mist
46°F / 8°C 46°F / 8°C 100% 29.42 in
(996 mb)
SE 10.4 mph
(SE 17 kph)
- 1 1/2SM
14:55
Overcast
Drizzle
46°F / 8°C 46°F / 8°C 100% 29.42 in
(996 mb)
SE 11.5 mph
(SE 19 kph)
- 1 1/4SM
14:35
Overcast
Light Rain
46°F / 8°C 46°F / 8°C 100% 29.44 in
(997 mb)
SE 11.5 mph
(SE 19 kph)
- 1SM
14:15
Overcast
Drizzle
46°F / 8°C 46°F / 8°C 100% 29.44 in
(997 mb)
SE 11.5 mph
(SE 19 kph)
- 1 1/4SM
13:55
Overcast
Rain
46°F / 8°C 46°F / 8°C 100% 29.44 in
(997 mb)
SE 9.2 mph
(SE 15 kph)
0.14 in
(3.56 mm)
1 1/2SM
13:35
Overcast
Rain
46°F / 8°C 46°F / 8°C 100% 29.47 in
(998 mb)
SE 8.1 mph
(SE 13 kph)
0.04 in
(1.02 mm)
2SM
13:15
Overcast
Rain
46°F / 8°C 45°F / 7°C 93% 29.47 in
(998 mb)
SE 9.2 mph
(SE 15 kph)
0.03 in
(0.76 mm)
1 1/2SM
12:55
Overcast
Heavy Rain
46°F / 8°C 45°F / 7°C 93% 29.5 in
(999 mb)
SSE 9.2 mph
(SSE 15 kph)
0.23 in
(5.84 mm)
1SM
12:35
Overcast
Rain
45°F / 7°C 45°F / 7°C 100% 29.5 in
(999 mb)
SSE 9.2 mph
(SSE 15 kph)
0.10 in
(2.54 mm)
1SM
12:15
Overcast
Rain
45°F / 7°C 45°F / 7°C 100% 29.53 in
(1000 mb)
SSE 8.1 mph
(SSE 13 kph)
0.03 in
(0.76 mm)
1 3/4SM
11:55
Overcast
Rain
45°F / 7°C 45°F / 7°C 100% 29.53 in
(1000 mb)
SSE 8.1 mph
(SSE 13 kph)
0.04 in
(1.02 mm)
2 1/2SM
11:35
Overcast
Light Rain
45°F / 7°C 45°F / 7°C 100% 29.56 in
(1001 mb)
SSE 9.2 mph
(SSE 15 kph)
0.03 in
(0.76 mm)
1 1/2SM
11:15
Overcast
Rain
45°F / 7°C 45°F / 7°C 100% 29.59 in
(1002 mb)
SSE 10.4 mph
(SSE 17 kph)
0.01 in
(0.25 mm)
2SM
10:55
Overcast
Light Rain
46°F / 8°C 45°F / 7°C 93% 29.59 in
(1002 mb)
SSE 11.5 mph
(SSE 19 kph)
0.10 in
(2.54 mm)
2 1/2SM
10:35
Overcast
Rain
46°F / 8°C 46°F / 8°C 100% 29.59 in
(1002 mb)
S 10.4 mph
(S 17 kph)
0.08 in
(2.03 mm)
4SM
10:15
Overcast
Rain
46°F / 8°C 45°F / 7°C 93% 29.62 in
(1003 mb)
S 11.5 mph
(S 19 kph)
0.05 in
(1.27 mm)
3SM
09:55
Overcast
Rain
46°F / 8°C 45°F / 7°C 93% 29.62 in
(1003 mb)
S 15 mph
(S 24 kph)
0.07 in
(1.78 mm)
3SM
09:35
Overcast
Light Rain
46°F / 8°C 45°F / 7°C 93% 29.62 in
(1003 mb)
S 15 mph
(S 24 kph)
0.01 in
(0.25 mm)
5SM
09:15
Overcast
Drizzle
46°F / 8°C 46°F / 8°C 100% 29.62 in
(1003 mb)
S 17.3 mph
(S 28 kph)
- 4SM
08:55
Overcast
Light Rain
46°F / 8°C 46°F / 8°C 100% 29.65 in
(1004 mb)
S 16.1 mph
(S 26 kph)
- 4SM
08:35
Overcast
Drizzle
46°F / 8°C 46°F / 8°C 100% 29.65 in
(1004 mb)
S 13.8 mph
(S 22 kph)
- 4SM
08:15
Overcast
Fog And Mist
46°F / 8°C 46°F / 8°C 100% 29.65 in
(1004 mb)
S 15 mph
(S 24 kph)
- 2 1/2SM
07:55
Overcast
Fog And Mist
46°F / 8°C 46°F / 8°C 100% 29.65 in
(1004 mb)
S 15 mph
(S 24 kph)
- 1 1/2SM
07:35
Overcast
Fog And Mist
46°F / 8°C 46°F / 8°C 100% 29.65 in
(1004 mb)
S 13.8 mph
(S 22 kph)
- 1 3/4SM
07:15
Overcast
Fog And Mist
46°F / 8°C 46°F / 8°C 100% 29.65 in
(1004 mb)
S 15 mph
(S 24 kph)
- 1 1/2SM
06:50
Overcast
Fog And Mist
46°F / 8°C 46°F / 8°C 100% 29.65 in
(1004 mb)
S 15 mph
(S 24 kph)
- 1 1/2SM
06:35
Overcast
Fog And Mist
46°F / 8°C 46°F / 8°C 100% 29.65 in
(1004 mb)
S 16.1 mph
(S 26 kph)
- 1 1/2SM
06:15
Overcast
Fog And Mist
48°F / 9°C 46°F / 8°C 94% 29.65 in
(1004 mb)
S 13.8 mph
(S 22 kph)
- 1 1/2SM
05:55
Overcast
Fog And Mist
48°F / 9°C 46°F / 8°C 94% 29.65 in
(1004 mb)
S 16.1 mph
(S 26 kph)
- 2SM
05:35
Overcast
Drizzle
48°F / 9°C 46°F / 8°C 94% 29.65 in
(1004 mb)
S 16.1 mph
(S 26 kph)
- 1 3/4SM
05:15
Overcast
Rain
48°F / 9°C 48°F / 9°C 100% 29.65 in
(1004 mb)
S 17.3 mph
(S 28 kph)
- 1 3/4SM
04:55
Overcast
Fog And Mist
48°F / 9°C 48°F / 9°C 100% 29.65 in
(1004 mb)
S 18.4 mph
(S 30 kph)
- 2SM
04:35
Overcast
Fog And Mist
48°F / 9°C 46°F / 8°C 94% 29.68 in
(1005 mb)
S 16.1 mph
(S 26 kph)
- 2SM
04:15
Overcast
Fog And Mist
48°F / 9°C 46°F / 8°C 94% 29.68 in
(1005 mb)
S 18.4 mph
(S 30 kph)
- 2SM
03:55
Overcast
Fog And Mist
46°F / 8°C 46°F / 8°C 100% 29.68 in
(1005 mb)
S 12.7 mph
(S 20 kph)
- 1 3/4SM
03:35
Overcast
Drizzle
46°F / 8°C 46°F / 8°C 100% 29.68 in
(1005 mb)
S 16.1 mph
(S 26 kph)
- 1 1/2SM
03:15
Overcast
Drizzle
46°F / 8°C 46°F / 8°C 100% 29.68 in
(1005 mb)
S 16.1 mph
(S 26 kph)
- 1 3/4SM
02:55
Overcast
Light Rain
46°F / 8°C 46°F / 8°C 100% 29.68 in
(1005 mb)
S 17.3 mph
(S 28 kph)
- 1 1/2SM
02:35
Overcast
Fog And Mist
46°F / 8°C 46°F / 8°C 100% 29.71 in
(1006 mb)
S 18.4 mph
(S 30 kph)
- 1 1/2SM
02:15
Overcast
Fog And Mist
46°F / 8°C 46°F / 8°C 100% 29.71 in
(1006 mb)
S 19.6 mph
(S 32 kph)
- 3/4SM
01:55
Overcast
Fog And Mist
46°F / 8°C 46°F / 8°C 100% 29.71 in
(1006 mb)
S 21.9 mph
(S 35 kph)
- 1SM
01:35
Overcast
Fog And Mist
46°F / 8°C 46°F / 8°C 100% 29.71 in
(1006 mb)
S 18.4 mph
(S 30 kph)
- 3/4SM
01:15
Overcast
Fog And Mist
46°F / 8°C 46°F / 8°C 100% 29.71 in
(1006 mb)
S 20.7 mph
(S 33 kph)
- 1 3/4SM
00:55
Overcast
46°F / 8°C 46°F / 8°C 100% 29.74 in
(1007 mb)
S 21.9 mph
(S 35 kph)
- 7SM
00:35
Overcast
48°F / 9°C 46°F / 8°C 94% 29.74 in
(1007 mb)
S 19.6 mph
(S 32 kph)
- 10SM
00:15
Overcast
48°F / 9°C 46°F / 8°C 94% 29.74 in
(1007 mb)
S 17.3 mph
(S 28 kph)
- 10SM
Time Weather Temperature Dewpoint Humidity Pressure Winds Precip Visibility


Weather for websites

WeatherForYou.com, LLC is not responsible for any damages or problems caused by this service. Current weather conditions are obtained from the closest station including government and personal stations which may have varying degrees of accuracy. Weather forecasts are derived from the NOAA NDFD. Like all things, this site belongs to Jesus Christ... He just trusts me to maintain it. If you have any questions or comments email webmaster@weatherforyou.com

Copyright © 2014, WeatherForYou.com LLC. All rights reserved.